Rockford, IL

10:16 PM CST on February 17, 2018 (GMT -0600)
Greater Rockford

Weather History for KRFD - April, 2012

Change the Weather History Date:

Thursday, April 26, 2012

  Actual Average Record
Temperature  
Mean Temperature 50 °F 53 °F  
Max Temperature 62 °F 65 °F 90 °F (1986)
Min Temperature 37 °F 42 °F 25 °F (1926)
Degree Days  
Heating Degree Days 15 12  
Month to date heating degree days 380 431  
Since 1 July heating degree days 5174 6295  
Cooling Degree Days 0 0  
Month to date cooling degree days 2 0  
Year to date cooling degree days 38 0  
Moisture  
Dew Point 38 °F    
Average Humidity 66    
Maximum Humidity 93    
Minimum Humidity 38    
Precipitation  
Precipitation 0.00 in 0.11 in 1.50 in (1921)
Month to date precipitation 3.46 2.88  
Year to date precipitation 8.09 7.98  
Snow  
Snow 0.00 in 0.00 in T in (1932)
Month to date snowfall 0.0 0.9  
Since 1 July snowfall 24.3 36.7  
Snow Depth 0.00 in    
Sea Level Pressure  
Sea Level Pressure 29.94 in    
Wind  
Wind Speed 11 mph (NNE)    
Max Wind Speed 23 mph    
Max Gust Speed 30 mph    
Visibility 8 miles    
Events      
T = Trace of Precipitation, MM = Missing Value Source: NWS Daily Summary

Daily Weather History Graph

Daily Weather History Graph

Search for Another Location

Airport or City:

Trip Planner

Search our weather history database for the weather conditions in past years. The results will help you decide how hot, cold, wet, or windy it might be!

Date:

Astronomy

Apr. 26, 2012 Rise Set
Actual Time 5:58 AM CDT 7:50 PM CDT
Civil Twilight 5:28 AM CDT 8:20 PM CDT
Nautical Twilight 4:51 AM CDT 8:57 PM CDT
Astronomical Twilight 4:11 AM CDT 9:37 PM CDT
Moon 9:35 AM CDT (4/26) No Moon Set
Length of Visible Light 14h 52m
Length of Day
13h 52m
Waxing Crescent, 24% of the Moon is Illuminated
Apr 26
Waxing Crescent
Apr 29
First Quarter
May 5
Full
May 12
Last Quarter
May 20
New

Hourly Weather History & Observations

Time (CDT) Temp. Windchill Dew Point Humidity Pressure Visibility Wind Dir Wind Speed Gust Speed Precip Events Conditions
12:54 AM 46.9 °F - 44.1 °F 90% 29.67 in 5.0 mi North 5.8 mph - N/A   Partly Cloudy
1:54 AM 46.4 °F 41.9 °F 44.6 °F 93% 29.68 in 5.0 mi North 9.2 mph - N/A   Partly Cloudy
2:54 AM 46.0 °F 41.4 °F 43.0 °F 89% 29.70 in 5.0 mi North 9.2 mph - N/A   Partly Cloudy
3:54 AM 45.0 °F 41.2 °F 42.1 °F 90% 29.71 in 5.0 mi NNW 6.9 mph - N/A   Partly Cloudy
4:54 AM 45.0 °F 40.1 °F 42.1 °F 90% 29.75 in 5.0 mi NNW 9.2 mph - N/A   Partly Cloudy
5:54 AM 45.0 °F 40.1 °F 42.1 °F 90% 29.78 in 5.0 mi North 9.2 mph - N/A   Partly Cloudy
6:54 AM 46.0 °F 41.4 °F 42.1 °F 86% 29.81 in 6.0 mi North 9.2 mph - N/A   Clear
7:54 AM 51.1 °F - 44.1 °F 77% 29.85 in 8.0 mi North 11.5 mph - N/A   Clear
8:54 AM 54.0 °F - 44.1 °F 69% 29.88 in 10.0 mi North 19.6 mph 27.6 mph N/A   Scattered Clouds
9:12 AM 53.6 °F - 42.8 °F 67% 29.89 in 10.0 mi North 18.4 mph 29.9 mph N/A   Mostly Cloudy
9:54 AM 52.0 °F - 42.1 °F 69% 29.93 in 10.0 mi North 20.7 mph 29.9 mph N/A   Overcast
10:54 AM 52.0 °F - 41.0 °F 66% 29.96 in 10.0 mi North 19.6 mph 28.8 mph N/A   Overcast
11:54 AM 55.9 °F - 41.0 °F 57% 29.98 in 10.0 mi North 19.6 mph 29.9 mph N/A   Overcast
12:54 PM 57.0 °F - 37.9 °F 49% 30.01 in 10.0 mi NNW 16.1 mph - N/A   Mostly Cloudy
1:54 PM 60.1 °F - 37.0 °F 42% 30.02 in 10.0 mi North 9.2 mph - N/A   Mostly Cloudy
2:54 PM 57.9 °F - 35.1 °F 42% 30.04 in 10.0 mi North 15.0 mph 20.7 mph N/A   Mostly Cloudy
3:54 PM 59.0 °F - 35.1 °F 41% 30.04 in 10.0 mi NNE 16.1 mph 24.2 mph N/A   Mostly Cloudy
4:54 PM 60.1 °F - 36.0 °F 41% 30.06 in 10.0 mi NNE 15.0 mph 23.0 mph N/A   Mostly Cloudy
5:54 PM 57.0 °F - 32.0 °F 39% 30.08 in 10.0 mi NNE 16.1 mph - N/A   Partly Cloudy
6:54 PM 54.0 °F - 28.0 °F 37% 30.10 in 10.0 mi NE 12.7 mph - N/A   Scattered Clouds
7:54 PM 50.0 °F - 35.1 °F 57% 30.13 in 10.0 mi East 3.5 mph - N/A   Scattered Clouds
8:54 PM 46.0 °F 41.0 °F 35.1 °F 66% 30.15 in 10.0 mi East 10.4 mph - N/A   Partly Cloudy
9:54 PM 42.1 °F 36.6 °F 32.0 °F 67% 30.17 in 10.0 mi East 9.2 mph - N/A   Partly Cloudy
10:54 PM 39.9 °F 35.8 °F 30.0 °F 68% 30.17 in 10.0 mi East 5.8 mph - N/A   Clear
11:54 PM 37.9 °F - 30.0 °F 73% 30.18 in 10.0 mi Calm Calm - N/A   Clear